TimeEDT,TemperatureF,Dew PointF,Humidity,Sea Level PressureIn,VisibilityMPH,Wind Direction,Wind SpeedMPH,Gust SpeedMPH,PrecipitationIn,Events,Conditions,WindDirDegrees,DateUTC
12:56 AM,63.0,59.0,87,30.11,10.0,North,12.7,-,N/A,,Overcast,350,2012-10-08 04:56:00
1:56 AM,62.1,57.9,86,30.10,10.0,North,15.0,21.9,N/A,,Overcast,360,2012-10-08 05:56:00
2:56 AM,62.1,57.0,84,30.10,10.0,North,15.0,20.7,N/A,,Overcast,360,2012-10-08 06:56:00
3:56 AM,62.1,57.0,84,30.13,10.0,North,11.5,17.3,N/A,,Overcast,10,2012-10-08 07:56:00
4:56 AM,63.0,57.9,84,30.11,10.0,North,11.5,-,N/A,,Overcast,10,2012-10-08 08:56:00
5:31 AM,64.4,59.0,83,30.10,10.0,NNE,13.8,-,N/A,,Overcast,20,2012-10-08 09:31:00
5:56 AM,63.0,57.9,84,30.12,10.0,NNE,11.5,18.4,N/A,,Overcast,20,2012-10-08 09:56:00
6:56 AM,64.9,59.0,81,30.14,10.0,NNE,13.8,-,N/A,,Overcast,20,2012-10-08 10:56:00
7:11 AM,64.4,57.2,77,30.13,10.0,NNE,12.7,-,N/A,,Overcast,20,2012-10-08 11:11:00
7:56 AM,66.0,57.9,75,30.16,10.0,NE,16.1,23.0,N/A,,Overcast,40,2012-10-08 11:56:00
8:56 AM,66.0,59.0,78,30.18,10.0,NNE,15.0,23.0,N/A,,Overcast,30,2012-10-08 12:56:00
9:56 AM,66.9,60.1,79,30.17,10.0,NNE,12.7,21.9,N/A,,Overcast,30,2012-10-08 13:56:00
10:56 AM,68.0,61.0,78,30.16,10.0,NNE,15.0,21.9,N/A,,Overcast,30,2012-10-08 14:56:00
11:56 AM,70.0,62.1,76,30.14,10.0,NE,15.0,-,N/A,,Overcast,50,2012-10-08 15:56:00
12:56 PM,70.0,63.0,78,30.12,10.0,NE,13.8,-,N/A,,Overcast,40,2012-10-08 16:56:00
1:56 PM,71.1,64.0,78,30.09,10.0,NE,16.1,21.9,N/A,,Overcast,50,2012-10-08 17:56:00
2:56 PM,71.1,64.0,78,30.06,10.0,NE,12.7,21.9,N/A,,Overcast,40,2012-10-08 18:56:00
3:28 PM,71.6,64.4,78,30.05,10.0,NE,12.7,-,N/A,,Overcast,40,2012-10-08 19:28:00
3:56 PM,71.1,64.0,78,30.06,10.0,NE,12.7,-,N/A,,Overcast,40,2012-10-08 19:56:00
4:56 PM,72.0,66.0,81,30.04,10.0,NNE,13.8,-,N/A,,Overcast,30,2012-10-08 20:56:00
5:56 PM,69.1,66.0,90,30.05,10.0,North,8.1,17.3,0.01,,Mostly Cloudy,360,2012-10-08 21:56:00
6:12 PM,69.8,64.4,83,30.03,10.0,North,10.4,-,N/A,,Mostly Cloudy,360,2012-10-08 22:12:00
6:44 PM,68.0,64.4,88,30.03,10.0,North,13.8,19.6,0.00,,Mostly Cloudy,350,2012-10-08 22:44:00
6:56 PM,68.0,64.0,87,30.04,10.0,North,15.0,-,0.00,,Mostly Cloudy,360,2012-10-08 22:56:00
7:06 PM,68.0,64.4,88,30.04,10.0,North,13.8,23.0,N/A,,Mostly Cloudy,360,2012-10-08 23:06:00
7:32 PM,68.0,64.4,88,30.03,10.0,North,13.8,-,N/A,,Overcast,360,2012-10-08 23:32:00
7:56 PM,68.0,64.0,87,30.05,10.0,North,12.7,18.4,N/A,,Overcast,360,2012-10-08 23:56:00
8:56 PM,66.9,63.0,87,30.07,10.0,North,17.3,23.0,N/A,,Overcast,360,2012-10-09 00:56:00
9:03 PM,66.2,62.6,88,30.06,10.0,North,15.0,23.0,N/A,,Overcast,360,2012-10-09 01:03:00
9:56 PM,66.9,63.0,87,30.10,10.0,North,10.4,19.6,0.07,Rain,Light Rain,360,2012-10-09 01:56:00
10:49 PM,68.0,64.4,88,30.04,9.0,NE,15.0,21.9,0.02,Rain,Light Rain,50,2012-10-09 02:49:00
10:56 PM,68.0,66.0,93,30.05,10.0,NE,16.1,21.9,0.02,Rain,Light Rain,50,2012-10-09 02:56:00
11:10 PM,68.0,66.2,94,30.04,10.0,ENE,13.8,-,0.00,Rain,Light Rain,60,2012-10-09 03:10:00
11:48 PM,69.8,66.2,88,30.02,10.0,NE,13.8,-,0.00,,Scattered Clouds,50,2012-10-09 03:48:00
11:56 PM,70.0,66.0,87,30.05,10.0,ENE,10.4,-,0.00,,Mostly Cloudy,60,2012-10-09 03:56:00